Ypsilanti, MI

11:43 PM EST on February 21, 2017 (GMT -0500)
Willow Run

Weather History for KYIP - September, 2013

Change the Weather History Date:

Sunday, September 15, 2013

  Actual Average Record
Temperature  
Mean Temperature 59 °F -  
Max Temperature 68 °F 74 °F 91 °F (1991)
Min Temperature 50 °F 53 °F 41 °F (2001)
Degree Days  
Heating Degree Days 6    
Growing Degree Days 9 (Base 50)    
Moisture  
Dew Point 49 °F    
Average Humidity 74    
Maximum Humidity 86    
Minimum Humidity 52    
Precipitation  
Precipitation 0.01 in - - ()
Sea Level Pressure  
Sea Level Pressure 30.10 in    
Wind  
Wind Speed 3 mph (WSW)    
Max Wind Speed 9 mph    
Max Gust Speed -    
Visibility 10 miles    
Events Rain    
Averages and records for this station are not official NWS values.
T = Trace of Precipitation, MM = Missing Value Source: NWS Daily Summary

Daily Weather History Graph

Daily Weather History Graph

Search for Another Location

Airport or City:

Trip Planner

Search our weather history database for the weather conditions in past years. The results will help you decide how hot, cold, wet, or windy it might be!

Date:

Astronomy

Sep. 15, 2013 Rise Set
Actual Time 7:14 AM EDT 7:43 PM EDT
Civil Twilight 6:46 AM EDT 8:11 PM EDT
Nautical Twilight 6:12 AM EDT 8:44 PM EDT
Astronomical Twilight 5:38 AM EDT 9:18 PM EDT
Moon 5:13 PM EDT (9/15) 2:47 AM EDT (9/15)
Length of Visible Light 13h 25m
Length of Day
12h 28m
Waxing Gibbous, 82% of the Moon is Illuminated
Sep 15
Waxing Gibbous
Sep 19
Full
Sep 26
Last Quarter
Oct 4
New
Oct 11
First Quarter

Hourly Weather History & Observations

Time (EDT) Temp. Dew Point Humidity Pressure Visibility Wind Dir Wind Speed Gust Speed Precip Events Conditions
12:53 AM 53.1 °F 48.0 °F 83% 30.11 in 10.0 mi SSW 4.6 mph - N/A   Clear
1:53 AM 54.0 °F 46.9 °F 77% 30.10 in 10.0 mi Calm Calm - N/A   Clear
2:53 AM 51.1 °F 46.9 °F 86% 30.10 in 10.0 mi Calm Calm - N/A   Clear
3:53 AM 50.0 °F 46.0 °F 86% 30.09 in 10.0 mi Calm Calm - N/A   Clear
4:53 AM 51.1 °F 46.0 °F 83% 30.09 in 7.0 mi Calm Calm - N/A   Clear
5:53 AM 51.1 °F 46.0 °F 83% 30.11 in 10.0 mi Calm Calm - N/A   Clear
6:53 AM 51.1 °F 44.1 °F 77% 30.12 in 10.0 mi Calm Calm - N/A   Clear
7:53 AM 52.0 °F 46.0 °F 80% 30.13 in 10.0 mi SSW 4.6 mph - N/A   Clear
8:53 AM 55.0 °F 46.0 °F 72% 30.12 in 10.0 mi SSW 8.1 mph - N/A   Clear
9:53 AM 57.0 °F 46.9 °F 69% 30.12 in 10.0 mi SSW 6.9 mph - N/A   Clear
10:53 AM 61.0 °F 48.0 °F 62% 30.10 in 10.0 mi SSW 9.2 mph - N/A   Clear
11:53 AM 63.0 °F 46.9 °F 56% 30.10 in 10.0 mi SW 8.1 mph - N/A   Partly Cloudy
12:53 PM 63.0 °F 51.1 °F 65% 30.10 in 10.0 mi WSW 4.6 mph - 0.00 in Rain Light Rain
1:53 PM 66.0 °F 51.1 °F 59% 30.09 in 10.0 mi West 5.8 mph - 0.00 in   Overcast
2:53 PM 66.9 °F 50.0 °F 54% 30.08 in 10.0 mi Calm Calm - N/A   Overcast
3:53 PM 68.0 °F 50.0 °F 52% 30.06 in 10.0 mi Calm Calm - N/A   Mostly Cloudy
4:53 PM 64.9 °F 53.1 °F 65% 30.06 in 10.0 mi North 6.9 mph - 0.00 in Rain Light Rain
5:53 PM 62.1 °F 53.1 °F 72% 30.09 in 10.0 mi North 5.8 mph - 0.00 in Rain Light Rain
6:53 PM 60.1 °F 53.1 °F 78% 30.12 in 10.0 mi North 4.6 mph - 0.00 in Rain Light Rain
7:53 PM 59.0 °F 53.1 °F 81% 30.11 in 10.0 mi Calm Calm - 0.00 in Rain Light Rain
8:53 PM 59.0 °F 53.1 °F 81% 30.12 in 10.0 mi Calm Calm - 0.00 in Rain Light Rain
9:53 PM 59.0 °F 54.0 °F 83% 30.13 in 10.0 mi Calm Calm - 0.00 in   Overcast
10:53 PM 59.0 °F 53.1 °F 81% 30.13 in 10.0 mi Calm Calm - N/A   Overcast
11:53 PM 59.0 °F 54.0 °F 83% 30.13 in 10.0 mi Calm Calm - 0.01 in   Overcast